Stations météo

Publicité
Chillingham Barns, Grande-Bretagne (99196): Température de l'air & dewpoint: 20.05.2018 22:00:00 - 26.05.2018 22:00:00 (BST)Chillingham Barns, Grande-Bretagne (99196): Quantités de précipitations: 20.05.2018 22:00:00 - 26.05.2018 22:00:00 (BST)
Date & Time tt [°C] td [°C] rr [mm]
26.05.2018 22:00:00 9,5 9,0 0,0
26.05.2018 21:00:00 9,5 8,8 0,0
26.05.2018 20:00:00 9,8 8,7 0,0
26.05.2018 19:00:00 11,4 9,2 0,0
26.05.2018 18:00:00 13,4 9,7 0,0
26.05.2018 17:00:00 13,2 10,3 0,0
26.05.2018 16:00:00 12,8 9,7 0,0
26.05.2018 15:00:00 14,9 10,5 0,0
26.05.2018 14:00:00 16,2 11,3 0,0
26.05.2018 13:00:00 15,4 11,4 0,0
26.05.2018 12:00:00 13,7 10,6 0,0
26.05.2018 11:00:00 12,0 9,9 0,0
26.05.2018 10:00:00 12,1 10,2 0,0
26.05.2018 09:00:00 11,2 10,0 0,0
26.05.2018 08:00:00 10,5 9,9 0,0
26.05.2018 07:00:00 9,9 9,5 0,0
26.05.2018 06:00:00 9,7 9,4 0,0
26.05.2018 05:00:00 9,7 9,4 0,0
26.05.2018 04:00:00 9,8 9,5 0,0
26.05.2018 03:00:00 9,7 9,5 0,0
26.05.2018 02:00:00 9,8 9,4 0,0
26.05.2018 01:00:00 9,8 9,3 0,0
26.05.2018 00:00:00 9,9 9,4 0,0
25.05.2018 23:00:00 10,0 9,3 0,0
25.05.2018 22:00:00 10,3 9,5 0,0
25.05.2018 21:00:00 10,6 9,6 0,0
25.05.2018 20:00:00 11,0 10,1 0,0
25.05.2018 19:00:00 11,2 10,4 0,2
25.05.2018 18:00:00 11,7 10,5 0,2
25.05.2018 17:00:00 12,5 10,0 0,0
25.05.2018 16:00:00 13,6 10,1 0,0
25.05.2018 15:00:00 14,9 10,6 0,0
25.05.2018 14:00:00 15,8 10,2 0,0
25.05.2018 13:00:00 16,7 10,6 0,0
25.05.2018 12:00:00 15,0 10,1 0,0
25.05.2018 11:00:00 13,0 9,3 0,0
25.05.2018 10:00:00 12,7 9,9 0,0
25.05.2018 09:00:00 10,0 9,5 0,0
25.05.2018 08:00:00 8,8 8,7 0,0
25.05.2018 07:00:00 8,3 8,2 0,0
25.05.2018 06:00:00 7,9 7,8 0,0
25.05.2018 05:00:00 7,8 7,6 0,0
25.05.2018 04:00:00 7,9 7,8 0,2
25.05.2018 03:00:00 8,1 7,9 0,0
25.05.2018 02:00:00 8,3 8,1 0,0
25.05.2018 01:00:00 8,6 8,3 0,0
25.05.2018 00:00:00 8,7 8,3 0,0
24.05.2018 23:00:00 8,8 8,1 0,0
24.05.2018 22:00:00 9,1 8,2 0,0
24.05.2018 21:00:00 9,3 8,1 0,0
24.05.2018 20:00:00 9,4 7,8 0,0
24.05.2018 19:00:00 11,0 7,6 0,0
24.05.2018 18:00:00 12,7 8,2 0,0
24.05.2018 17:00:00 14,6 8,9 0,0
24.05.2018 16:00:00 14,9 9,0 0,0
24.05.2018 15:00:00 15,0 8,8 0,0
24.05.2018 14:00:00 14,4 8,7 0,0
24.05.2018 13:00:00 13,8 8,6 0,0
24.05.2018 12:00:00 14,4 9,4 0,0
24.05.2018 11:00:00 12,9 9,8 0,0
24.05.2018 10:00:00 9,9 7,8 0,0
24.05.2018 09:00:00 8,3 7,0 0,0
24.05.2018 08:00:00 7,9 7,1 0,0
24.05.2018 07:00:00 7,6 6,8 0,0
24.05.2018 06:00:00 7,5 6,7 0,0
24.05.2018 05:00:00 7,4 6,5 0,0
24.05.2018 04:00:00 7,6 6,7 0,0
24.05.2018 03:00:00 7,6 6,7 0,0
24.05.2018 02:00:00 7,8 7,0 0,0
24.05.2018 01:00:00 7,8 7,0 0,0
24.05.2018 00:00:00 8,0 7,2 0,0
23.05.2018 23:00:00 8,0 7,0 0,0
23.05.2018 22:00:00 8,0 6,9 0,0
23.05.2018 21:00:00 8,3 7,1 0,0
23.05.2018 20:00:00 8,8 7,0 0,0
23.05.2018 19:00:00 9,5 6,9 0,0
23.05.2018 18:00:00 10,4 7,4 0,0
23.05.2018 17:00:00 10,8 7,6 0,0
23.05.2018 16:00:00 10,8 7,7 0,0
23.05.2018 15:00:00 11,0 8,2 0,0
23.05.2018 14:00:00 11,1 7,9 0,0
23.05.2018 13:00:00 10,7 7,5 0,0
23.05.2018 12:00:00 10,5 7,3 0,0
23.05.2018 11:00:00 10,1 7,6 0,0
23.05.2018 10:00:00 9,6 7,3 0,0
23.05.2018 09:00:00 8,7 6,8 0,0
23.05.2018 08:00:00 8,4 7,1 0,0
23.05.2018 07:00:00 8,0 7,1 0,0
23.05.2018 06:00:00 8,0 7,3 0,0
23.05.2018 05:00:00 8,0 7,0 0,0
23.05.2018 04:00:00 8,2 7,1 0,0
23.05.2018 03:00:00 8,3 7,2 0,0
23.05.2018 02:00:00 8,3 7,5 0,0
23.05.2018 01:00:00 8,3 7,9 0,0
23.05.2018 00:00:00 8,4 8,0 0,0
22.05.2018 23:00:00 8,3 7,9 0,2
22.05.2018 22:00:00 8,4 8,0 0,0
22.05.2018 21:00:00 8,5 7,9 0,0
22.05.2018 20:00:00 8,8 8,2 0,0
22.05.2018 19:00:00 8,9 8,2 0,0
22.05.2018 18:00:00 8,9 8,2 0,0
22.05.2018 17:00:00 9,1 8,3 0,0
22.05.2018 16:00:00 8,9 8,1 0,0
22.05.2018 15:00:00 9,0 8,1 0,0
22.05.2018 14:00:00 9,3 8,1 0,0
22.05.2018 13:00:00 9,6 8,6 0,0
22.05.2018 12:00:00 9,5 8,3 0,0
22.05.2018 11:00:00 9,0 8,4 0,2
22.05.2018 10:00:00 8,4 7,8 0,2
22.05.2018 09:00:00 8,0 7,6 0,2
22.05.2018 08:00:00 7,9 7,5 0,2
22.05.2018 07:00:00 7,6 7,2 0,4
22.05.2018 06:00:00 7,6 7,3 0,2
22.05.2018 05:00:00 7,5 7,1 0,2
22.05.2018 04:00:00 7,6 7,3 0,0
22.05.2018 03:00:00 7,9 7,3 0,0
22.05.2018 02:00:00 8,1 7,4 0,0
22.05.2018 01:00:00 8,3 7,6 0,0
22.05.2018 00:00:00 9,1 8,4 0,0
21.05.2018 23:00:00 11,2 8,1 0,0
21.05.2018 22:00:00 12,7 8,2 0,0
21.05.2018 21:00:00 14,4 7,9 0,0
21.05.2018 20:00:00 16,1 8,1 0,0
21.05.2018 19:00:00 16,9 7,5 0,0
21.05.2018 18:00:00 17,9 8,4 0,0
21.05.2018 17:00:00 19,5 9,8 0,0
21.05.2018 16:00:00 20,2 10,5 0,0
21.05.2018 15:00:00 20,7 10,5 0,0
21.05.2018 14:00:00 21,0 10,5 0,0
21.05.2018 13:00:00 21,0 12,1 0,0
21.05.2018 12:00:00 20,5 11,8 0,0
21.05.2018 11:00:00 18,9 11,4 0,0
21.05.2018 10:00:00 17,0 10,3 0,0
21.05.2018 09:00:00 14,8 12,0 0,0
21.05.2018 08:00:00 12,6 11,2 0,0
21.05.2018 07:00:00 9,0 8,8 0,0
21.05.2018 06:00:00 7,5 7,2 0,0
21.05.2018 05:00:00 7,7 7,2 0,0
21.05.2018 04:00:00 8,1 7,7 0,0
21.05.2018 03:00:00 8,4 8,0 0,0
21.05.2018 02:00:00 8,3 7,8 0,0
21.05.2018 01:00:00 9,5 8,4 0,0
21.05.2018 00:00:00 9,7 8,4 0,0
20.05.2018 23:00:00 10,2 8,7 0,0
20.05.2018 22:00:00 11,6 9,2 0,0

tt = Température de l'air
td = dewpoint
rr = Quantités de précipitations

stations d'obs. à proximité